Date String (YYYY-MM-DD hh:mm:ss) UTC,Instrument flags,Ambient pressure (hPa),Sample flow (lpm),Bypass flow (lpm),Sample temperature (°C),Ambient temperature (°C),ASC tube jacket temperature (°C),LED temperature (°C),Box temperature (°C),Sample RH (%),Span deviation,Mass concentration (μg/m³),Mass concentration (μg/m³),Mass concentration (μg/m³)
DateTimeUTC,F1_M11,P_M11,Q1_M11,Q2_M11,T1_M11,T2_M11,T3_M11,T4_M11,T5_M11,U1_M11,ZSPAN_M11,X0_M11,X2_M11,X1_M11
2021-09-13 12:00:00,,0826.2,4.99,0.00,29.7,28.8,00.0,38.7,31.4,22.7,0000.0,0009.36,0004.77,0003.89
2021-09-13 12:01:00,,0826.2,4.99,0.00,29.7,28.8,00.0,38.7,31.4,22.6,0000.0,0009.12,0004.77,0003.91
2021-09-13 12:02:00,,0826.2,5.01,0.00,29.7,28.8,00.0,38.8,31.5,22.6,0000.0,0009.05,0004.79,0003.93
2021-09-13 12:03:00,,0826.3,5.01,0.00,29.7,28.8,00.0,38.8,31.5,22.6,0000.0,0009.01,0004.81,0003.94
2021-09-13 12:04:00,,0826.5,5.00,0.00,29.7,28.8,00.0,38.8,31.5,22.7,0000.0,0009.18,0004.84,0003.94
2021-09-13 12:05:00,,0826.5,5.01,0.00,29.7,28.8,00.0,38.8,31.5,22.8,0000.0,0009.29,0004.87,0003.94
2021-09-13 12:06:00,,0826.4,5.00,0.00,29.7,28.8,00.0,38.8,31.4,22.7,0000.0,0009.70,0004.91,0003.94
2021-09-13 12:07:00,,0826.2,5.00,0.00,29.7,28.8,00.0,38.8,31.4,22.5,0000.0,0009.72,0004.87,0003.93
2021-09-13 12:08:00,,0826.1,4.99,0.00,29.7,28.8,00.0,38.8,31.4,22.4,0000.0,0009.72,0004.84,0003.92
2021-09-13 12:09:00,,0826.2,5.01,0.00,29.7,28.9,00.0,38.8,31.4,22.2,0000.0,0009.91,0004.83,0003.91
2021-09-13 12:10:00,,0826.1,5.00,0.00,29.7,28.9,00.0,38.8,31.5,22.1,0000.0,0009.93,0004.84,0003.91
2021-09-13 12:11:00,,0826.0,5.00,0.00,29.8,29.0,00.0,38.8,31.5,22.1,0000.3,0010.01,0004.85,0003.90
2021-09-13 12:12:00,,0826.0,4.99,0.00,29.8,29.0,00.0,38.8,31.5,22.1,0001.2,0010.18,0004.90,0003.90
2021-09-13 12:13:00,,0826.2,5.01,0.00,29.8,29.0,00.0,38.9,31.6,22.1,0001.3,0010.12,0004.89,0003.90
2021-09-13 12:14:00,,0826.2,4.99,0.00,29.8,29.0,00.0,38.9,31.6,22.3,0002.5,0010.11,0004.89,0003.91
2021-09-13 12:15:00,,0826.2,5.00,0.00,29.8,29.0,00.0,38.9,31.6,22.3,0003.2,0009.94,0004.84,0003.91
2021-09-13 12:16:00,,0826.4,5.00,0.00,29.8,29.0,00.0,38.9,31.6,22.3,0002.3,0009.83,0004.82,0003.91
2021-09-13 12:17:00,,0826.5,5.00,0.00,29.8,29.0,00.0,38.9,31.6,22.4,0000.9,0009.60,0004.81,0003.92
2021-09-13 12:18:00,,0826.5,4.99,0.00,29.8,29.0,00.0,38.9,31.6,22.6,0000.4,0009.46,0004.82,0003.92
2021-09-13 12:19:00,,0826.4,5.01,0.00,29.8,29.0,00.0,38.9,31.5,23.0,0000.2,0009.03,0004.80,0003.91
2021-09-13 12:20:00,,0826.3,5.00,0.00,29.8,29.0,00.0,38.9,31.5,22.5,0000.1,0008.86,0004.79,0003.90
2021-09-13 12:21:00,,0826.2,4.99,0.00,29.8,29.0,00.0,38.9,31.5,22.2,0000.0,0009.15,0004.85,0003.89
2021-09-13 12:22:00,,0826.2,5.00,0.00,29.8,29.0,00.0,38.9,31.5,22.2,0000.0,0009.20,0004.85,0003.89
2021-09-13 12:23:00,,0826.2,5.01,0.00,29.8,29.0,00.0,38.9,31.5,22.3,0000.0,0009.15,0004.83,0003.89
2021-09-13 12:24:00,,0826.1,5.00,0.00,29.8,29.0,00.0,38.9,31.5,22.3,0000.0,0009.29,0004.88,0003.90
2021-09-13 12:25:00,,0826.2,5.00,0.00,29.8,29.0,00.0,38.9,31.5,22.3,0000.0,0009.60,0004.94,0003.92
2021-09-13 12:26:00,,0826.2,5.00,0.00,29.8,29.0,00.0,38.9,31.5,22.3,0000.0,0009.75,0005.00,0003.92
2021-09-13 12:27:00,,0826.2,4.99,0.00,29.8,29.0,00.0,38.9,31.4,22.3,0000.0,0009.78,0005.00,0003.92
2021-09-13 12:28:00,,0826.2,5.01,0.00,29.7,29.0,00.0,38.9,31.5,22.5,0000.0,0009.66,0004.99,0003.93
2021-09-13 12:29:00,,0826.2,4.99,0.00,29.7,28.9,00.0,38.9,31.5,22.7,0000.0,0009.55,0004.98,0003.94
2021-09-13 12:30:00,,0826.2,4.99,0.00,29.7,28.9,00.0,38.9,31.4,22.8,0000.0,0009.76,0005.02,0003.97
2021-09-13 12:31:00,,0826.2,5.01,0.00,29.7,29.0,00.0,38.9,31.4,23.2,0000.0,0009.76,0005.06,0004.01
2021-09-13 12:32:00,,0826.2,4.99,0.00,29.8,29.0,00.0,38.9,31.5,23.3,0000.0,0009.83,0005.09,0004.05
2021-09-13 12:33:00,,0826.1,5.00,0.00,29.8,29.0,00.0,38.9,31.5,23.2,0000.0,0009.78,0005.12,0004.08
2021-09-13 12:34:00,,0826.1,5.00,0.00,29.8,29.0,00.0,38.9,31.5,23.1,0000.0,0010.05,0005.15,0004.10
2021-09-13 12:35:00,,0826.1,4.99,0.00,29.8,29.0,00.0,38.9,31.5,23.0,0000.0,0009.99,0005.13,0004.12
2021-09-13 12:36:00,,0826.2,5.00,0.00,29.8,29.0,00.0,38.9,31.6,22.9,0000.0,0009.72,0005.06,0004.13
2021-09-13 12:37:00,,0826.2,5.01,0.00,29.8,29.0,00.0,38.9,31.5,22.8,0000.0,0009.62,0005.01,0004.14
2021-09-13 12:38:00,,0826.2,5.01,0.00,29.8,29.0,00.0,38.9,31.5,22.8,0000.0,0009.49,0004.99,0004.16
2021-09-13 12:39:00,,0826.2,5.00,0.00,29.8,29.0,00.0,38.9,31.5,22.8,0000.8,0009.67,0005.03,0004.17
2021-09-13 12:40:00,,0826.2,4.99,0.00,29.8,29.0,00.0,39.0,31.5,22.8,0001.0,0009.92,0005.06,0004.19
2021-09-13 12:41:00,,0826.1,5.01,0.00,29.8,29.0,00.0,39.0,31.6,22.8,0000.8,0009.70,0005.03,0004.19
2021-09-13 12:42:00,,0826.2,4.99,0.00,29.8,29.0,00.0,39.0,31.5,22.9,0001.5,0009.62,0005.02,0004.19
2021-09-13 12:43:00,,0826.2,5.02,0.00,29.8,29.1,00.0,39.0,31.5,23.0,0001.8,0009.39,0004.98,0004.18
2021-09-13 12:44:00,,0826.2,4.99,0.00,29.8,29.1,00.0,39.0,31.5,23.0,0001.7,0009.46,0004.97,0004.18
2021-09-13 12:45:00,,0826.2,5.00,0.00,29.8,29.0,00.0,39.0,31.5,23.1,0000.6,0009.30,0004.98,0004.18
2021-09-13 12:46:00,,0826.2,5.01,0.00,29.8,29.0,00.0,39.0,31.5,23.4,-000.1,0009.22,0004.99,0004.18
2021-09-13 12:47:00,,0826.2,5.00,0.00,29.8,29.1,00.0,39.0,31.5,23.3,-000.2,0009.21,0005.05,0004.19
2021-09-13 12:48:00,,0826.1,4.99,0.00,29.8,29.1,00.0,39.0,31.5,23.2,-000.1,0009.25,0005.11,0004.21
2021-09-13 12:49:00,,0826.2,5.00,0.00,29.9,29.1,00.0,39.0,31.6,23.0,0000.1,0009.33,0005.12,0004.22
2021-09-13 12:50:00,,0826.2,5.00,0.00,29.9,29.2,00.0,39.0,31.6,22.8,0000.0,0009.12,0005.07,0004.21
2021-09-13 12:51:00,,0826.2,5.01,0.00,29.9,29.2,00.0,39.0,31.7,22.8,0000.0,0009.53,0005.11,0004.22
2021-09-13 12:52:00,,0826.2,5.00,0.00,29.9,29.2,00.0,39.0,31.7,22.8,0000.0,0009.95,0005.14,0004.24
2021-09-13 12:53:00,,0826.2,4.99,0.00,29.9,29.3,00.0,39.0,31.8,22.7,0000.0,0010.32,0005.11,0004.23
2021-09-13 12:54:00,,0826.2,4.99,0.00,29.9,29.3,00.0,39.0,31.7,22.6,0000.0,0010.34,0005.12,0004.24
2021-09-13 12:55:00,,0826.2,5.01,0.00,29.9,29.2,00.0,39.0,31.7,22.7,0000.0,0010.38,0005.17,0004.26
2021-09-13 12:56:00,,0826.3,5.00,0.00,29.9,29.2,00.0,39.0,31.7,22.8,0000.0,0010.71,0005.18,0004.27
2021-09-13 12:57:00,,0826.3,5.00,0.00,29.9,29.2,00.0,39.0,31.7,22.8,0000.0,0010.86,0005.18,0004.27
2021-09-13 12:58:00,,0826.4,5.01,0.00,29.9,29.2,00.0,39.0,31.6,22.6,0000.0,0010.98,0005.16,0004.27
2021-09-13 12:59:00,,0826.4,4.99,0.00,29.9,29.1,00.0,39.0,31.6,22.4,0000.3,0011.31,0005.14,0004.24
